Home   Weather   Campbelltown   Past weeks
Flag for Australia

Past Weather in Campbelltown, New South Wales, Australia — Yesterday and Last 2 Weeks

Now
68 °F

Partly sunny.


Feels Like: 68 °F
Forecast: 72 / 64 °F
Wind: 9 mph from South

Location: Camden Airport

Current Time: Feb 24, 2019 at 10:28:08 am

Latest Report: Feb 24, 2019 at 9:00 am


Visibility: N/A

Pressure: 30.35 "Hg

Humidity: 59%

Dew Point: 53 °F

Location of CampbelltownLocation

Past Weather in Campbelltown — Graph

°F

Campbelltown Temperature Yesterday

Maximum temperature yesterday: 79 °F (at 3:00 pm)
Minimum temperature yesterday: 60 °F (at 4:00 am)
Average temperature yesterday: 68 °F

High & Low Weather Summary for the Past Weeks

 TemperatureHumidityPressure
High101 °F (Feb 18, 3:00 pm)99% (Feb 12, 4:00 am)30.35 "Hg (Feb 12, 4:00 am)
Low53 °F (Feb 11, 6:00 am)9% (Feb 12, 3:00 pm)29.38 "Hg (Feb 12, 3:00 pm)
Average72 °F61%29.89 "Hg
* Reported Feb 9 9:00 am — Feb 24 9:00 am, Campbelltown. Weather by CustomWeather, © 2019

Note: Actual official high and low records may vary slightly from our data, if they occured in-between our weather recording intervals... More about our weather records

Advertising

Campbelltown Weather History for the Previous 24 Hours

Scroll right to see more
 ConditionsComfort  
Time TempWeatherWind HumidityBarometerVisibility
9:00 am
Sun, Feb 24
68 °FPartly sunny.9 mph59%30.35 "HgN/A
7:00 am64 °FMild.6 mph66%30.33 "HgN/A
6:00 am62 °FPassing clouds.7 mph66%30.30 "HgN/A
4:00 am65 °FMild.8 mph66%30.28 "HgN/A
3:00 am65 °FOvercast.9 mph70%30.28 "HgN/A
1:00 am64 °FMild.2 mph85%30.28 "HgN/A
12:00 am64 °FOvercast.1 mph89%30.28 "HgN/A
10:00 pm
Sat, Feb 23
64 °FMild.15 mph83%30.29 "HgN/A
9:00 pm69 °FOvercast.6 mph59%30.26 "HgN/A
7:00 pm73 °FMild.15 mph47%30.21 "HgN/A
6:00 pm74 °FScattered clouds.17 mph45%30.20 "HgN/A
4:00 pm79 °FPleasantly warm.14 mph39%30.17 "HgN/A
3:00 pm79 °FWarm.15 mph42%30.18 "HgN/A
1:00 pm74 °FMild.10 mph51%30.19 "HgN/A
12:00 pm73 °FOvercast.12 mph52%30.20 "HgN/A
10:00 am70 °FMild.10 mph59%30.20 "HgN/A
Weather by CustomWeather, © 2019

See weather overview